Temp
-13 -12 -12 -11 -11 -12 -10 -10 -11 -12 -11 -11 -10 -10 -10 -10 -9 -9 -9 -9 -9 -8 -8 -8 -8 -9 -9 -9 -9 -9 -9 -9 -9 -10 -10 -10 -11 -11 -11 -11 -11 -11 -11
-13 -12 -12 -11 -11 -11 -11 -11 -12 -11 -11 -11 -10 -10 -10 -10 -10 -10 -10 -9 -9 -9 -9 -9 -9 -9 -10 -10 -10 -10 -10 -10 -10 -11 -11 -11 -11 -11 -11 -11 -11 -11 -11
-13 -12 -12 -10 -10 -11 -12 -12 -12 -12 -11 -11 -11 -10 -10 -10 -10 -10 -10 -10 -10 -10 -10 -10 -10 -10 -10 -10 -10 -10 -11 -11 -11 -11 -11 -11 -11 -11 -11 -11 -11 -11 -11
-13 -13 -13 -13 -12 -11 -12 -13 -12 -12 -12 -12 -11 -11 -11 -11 -11 -10 -10 -10 -10 -10 -11 -11 -10 -10 -10 -11 -11 -11 -11 -12 -12 -12 -12 -12 -12 -12 -12 -12 -12 -12 -12
-13 -12 -13 -13 -13 -12 -12 -13 -12 -12 -12 -11 -11 -12 -12 -11 -11 -11 -10 -11 -11 -11 -11 -11 -11 -11 -11 -11 -11 -12 -12 -12 -12 -12 -12 -12 -12 -12 -12 -12 -12 -12 -12
-14 -13 -12 -12 -12 -13 -12 -12 -13 -12 -11 -12 -12 -12 -11 -12 -12 -11 -11 -11 -11 -11 -11 -11 -11 -11 -12 -12 -12 -12 -12 -13 -13 -12 -12 -12 -12 -12 -12 -12 -12 -12 -12
-14 -13 -13 -13 -13 -12 -11 -10 -10 -12 -12 -12 -12 -12 -12 -12 -12 -11 -11 -11 -11 -12 -12 -12 -12 -12 -12 -12 -12 -13 -13 -13 -13 -12 -12 -12 -13 -13 -13 -12 -12 -12 -12
-13 -14 -14 -14 -13 -11 -10 -10 -11 -12 -13 -12 -12 -12 -12 -12 -12 -12 -11 -11 -12 -11 -12 -12 -12 -12 -12 -13 -13 -13 -13 -13 -13 -13 -13 -13 -13 -13 -13 -13 -13 -13 -13
-12 -13 -14 -13 -12 -11 -11 -11 -11 -11 -13 -12 -12 -12 -12 -12 -12 -12 -12 -12 -12 -12 -12 -12 -12 -12 -13 -14 -13 -13 -13 -13 -13 -13 -13 -13 -13 -13 -13 -13 -13 -13 -12
-12 -13 -13 -13 -13 -12 -12 -11 -11 -11 -11 -12 -12 -12 -12 -11 -12 -12 -12 -12 -12 -12 -12 -12 -12 -12 -12 -14 -14 -13 -13 -13 -13 -13 -13 -13 -13 -13 -13 -13 -13 -13 -12
-9 -12 -13 -13 -12 -12 -11 -11 -11 -11 -12 -12 -12 -12 -11 -12 -12 -12 -12 -12 -12 -12 -12 -12 -13 -13 -14 -14 -14 -14 -14 -14 -14 -14 -13 -13 -13 -13 -13 -13 -13 -13 -13
-13 -14 -13 -13 -12 -11 -11 -12 -12 -12 -12 -13 -13 -12 -12 -12 -12 -11 -12 -12 -12 -12 -12 -13 -14 -14 -14 -14 -14 -14 -14 -14 -14 -14 -13 -13 -13 -13 -13 -13 -13 -13 -13
-13 -13 -13 -12 -12 -12 -12 -12 -12 -13 -12 -12 -12 -12 -12 -13 -12 -12 -12 -12 -12 -12 -12 -14 -15 -14 -14 -14 -14 -14 -14 -14 -14 -14 -14 -13 -13 -13 -13 -13 -13 -13 -13
-13 -13 -13 -14 -13 -13 -13 -13 -13 -12 -13 -12 -12 -12 -12 -12 -12 -12 -13 -13 -13 -13 -13 -14 -15 -14 -14 -14 -15 -15 -14 -14 -14 -14 -14 -14 -14 -14 -14 -14 -14 -14 -14
-13 -13 -13 -13 -14 -14 -13 -13 -13 -12 -13 -12 -12 -12 -13 -12 -12 -12 -14 -14 -13 -13 -13 -15 -15 -15 -15 -15 -15 -15 -14 -14 -14 -14 -14 -14 -14 -14 -14 -14 -14 -14 -14
-13 -13 -13 -13 -13 -13 -13 -13 -12 -12 -13 -13 -13 -13 -13 -13 -12 -12 -13 -14 -14 -14 -15 -15 -15 -15 -15 -15 -15 -15 -15 -14 -14 -14 -14 -14 -14 -14 -14 -14 -14 -14 -14
-13 -13 -13 -13 -13 -14 -13 -13 -12 -12 -12 -13 -13 -13 -13 -13 -13 -14 -14 -15 -15 -16 -16 -15 -15 -15 -15 -15 -15 -15 -14 -15 -15 -14 -14 -15 -14 -14 -14 -14 -14 -14 -15
-13 -13 -13 -13 -13 -14 -13 -13 -12 -12 -13 -13 -13 -13 -13 -13 -14 -14 -15 -15 -16 -16 -16 -15 -15 -15 -15 -15 -15 -15 -15 -15 -15 -15 -15 -15 -15 -15 -15 -15 -14 -15 -15
-12 -13 -13 -13 -13 -13 -13 -13 -12 -12 -12 -12 -13 -13 -13 -13 -14 -16 -15 -16 -16 -16 -15 -15 -15 -15 -15 -15 -15 -15 -15 -15 -15 -15 -15 -15 -15 -15 -15 -15 -15 -15 -15
-12 -12 -12 -12 -13 -13 -12 -12 -12 -12 -11 -12 -13 -14 -12 -15 -16 -15 -16 -16 -15 -15 -15 -16 -16 -15 -16 -15 -15 -15 -15 -15 -15 -15 -15 -15 -15 -15 -15 -15 -16 -16 -15
-14 -14 -14 -14 -13 -12 -11 -11 -12 -12 -12 -13 -14 -13 -14 -15 -14 -15 -16 -16 -15 -16 -15 -15 -15 -15 -15 -15 -15 -15 -15 -15 -15 -15 -15 -15 -15 -15 -15 -15 -16 -16 -17
-14 -15 -14 -14 -14 -14 -13 -13 -14 -14 -14 -14 -14 -14 -15 -15 -15 -15 -16 -16 -16 -16 -16 -15 -15 -15 -16 -15 -15 -15 -15 -15 -15 -15 -15 -15 -15 -15 -16 -16 -16 -17 -18
-14 -14 -14 -14 -14 -14 -14 -14 -14 -13 -13 -14 -14 -14 -15 -15 -15 -15 -15 -15 -15 -15 -15 -15 -16 -15 -15 -15 -15 -15 -15 -15 -15 -15 -15 -15 -15 -15 -15 -15 -16 -17 -17
-14 -14 -14 -14 -14 -14 -14 -14 -14 -14 -14 -14 -14 -14 -15 -15 -15 -15 -15 -15 -15 -15 -15 -16 -16 -16 -16 -16 -15 -15 -15 -15 -15 -15 -15 -15 -15 -15 -16 -16 -16 -17 -17
-14 -14 -14 -14 -14 -14 -14 -14 -14 -14 -14 -15 -15 -15 -14 -15 -15 -16 -16 -16 -16 -16 -15 -15 -16 -16 -16 -16 -16 -16 -16 -16 -16 -15 -15 -15 -16 -16 -16 -17 -17 -17 -17
-14 -14 -14 -14 -14 -14 -14 -14 -14 -14 -14 -14 -14 -15 -15 -15 -15 -15 -15 -15 -15 -15 -15 -15 -16 -16 -16 -16 -16 -16 -16 -16 -16 -16 -16 -16 -16 -16 -17 -17 -17 -18 -18
Height
5809 5811 5811 5811 5813 5817 5820 5824 5829 5833 5835 5838 5840 5839 5840 5841 5843 5844 5843 5843 5844 5846 5846 5846 5846 5847 5847 5848 5848 5848 5848 5847 5846 5845 5844 5844 5843 5842 5841 5841 5841 5840 5840
5807 5806 5804 5800 5810 5812 5814 5818 5820 5827 5832 5836 5837 5838 5838 5838 5840 5841 5841 5841 5842 5842 5844 5845 5846 5847 5846 5846 5845 5846 5846 5845 5844 5844 5843 5842 5841 5841 5840 5840 5840 5839 5839
5797 5798 5799 5788 5796 5805 5809 5813 5818 5822 5827 5830 5833 5835 5835 5836 5837 5838 5839 5839 5840 5841 5842 5843 5844 5846 5846 5843 5845 5845 5843 5843 5842 5842 5841 5839 5839 5839 5838 5838 5839 5838 5837
5791 5793 5790 5784 5791 5799 5800 5807 5813 5818 5822 5826 5829 5831 5832 5833 5834 5835 5836 5836 5837 5838 5839 5840 5842 5844 5844 5842 5842 5843 5841 5841 5840 5840 5839 5839 5838 5837 5837 5837 5836 5836 5835
5789 5787 5791 5791 5793 5788 5795 5803 5809 5813 5816 5821 5824 5826 5829 5831 5831 5833 5834 5834 5835 5836 5836 5837 5840 5840 5840 5839 5840 5841 5840 5839 5839 5838 5837 5836 5837 5836 5836 5836 5836 5835 5835
5784 5785 5784 5788 5792 5792 5799 5802 5802 5806 5810 5815 5819 5822 5824 5826 5828 5830 5831 5832 5833 5833 5834 5835 5836 5837 5837 5837 5838 5837 5837 5836 5837 5837 5836 5835 5835 5835 5835 5834 5834 5834 5834
5778 5781 5782 5781 5783 5785 5774 5778 5791 5798 5805 5811 5814 5818 5821 5823 5823 5826 5828 5829 5829 5830 5830 5831 5832 5834 5834 5834 5835 5835 5835 5835 5835 5834 5834 5834 5834 5834 5834 5834 5833 5831 5831
5769 5772 5778 5779 5782 5779 5771 5780 5777 5794 5802 5808 5811 5814 5818 5819 5820 5822 5824 5825 5825 5826 5827 5828 5828 5829 5832 5831 5829 5832 5834 5834 5833 5832 5832 5832 5833 5832 5832 5832 5831 5829 5828
5760 5765 5774 5777 5777 5778 5779 5779 5776 5785 5795 5802 5806 5810 5814 5814 5817 5818 5819 5821 5822 5822 5823 5823 5824 5825 5827 5830 5825 5828 5830 5830 5830 5830 5830 5831 5831 5831 5830 5829 5827 5826 5824
5757 5761 5769 5773 5776 5779 5779 5779 5779 5784 5790 5797 5800 5806 5809 5810 5813 5815 5816 5817 5817 5819 5819 5819 5819 5820 5823 5827 5824 5825 5827 5827 5828 5828 5828 5828 5829 5828 5826 5825 5823 5821 5819
5749 5759 5764 5769 5771 5775 5776 5779 5777 5782 5789 5794 5797 5803 5805 5805 5807 5808 5812 5811 5812 5814 5815 5814 5814 5815 5818 5823 5823 5823 5825 5824 5824 5825 5825 5825 5825 5824 5823 5821 5819 5817 5815
5751 5757 5760 5764 5767 5770 5771 5771 5777 5780 5782 5788 5795 5800 5800 5799 5803 5806 5807 5807 5807 5807 5809 5810 5810 5812 5815 5819 5820 5821 5821 5822 5822 5822 5822 5821 5821 5820 5819 5817 5815 5813 5810
5754 5755 5758 5761 5763 5763 5765 5768 5773 5776 5780 5787 5790 5791 5792 5794 5798 5799 5801 5798 5798 5800 5803 5805 5806 5810 5812 5815 5816 5817 5819 5820 5820 5820 5819 5819 5817 5815 5815 5813 5811 5807 5804
5752 5753 5756 5756 5757 5760 5764 5768 5772 5775 5779 5781 5783 5785 5788 5791 5795 5794 5795 5793 5795 5796 5798 5801 5805 5808 5809 5811 5813 5814 5815 5816 5817 5816 5814 5814 5813 5812 5811 5808 5806 5803 5801
5748 5752 5755 5756 5758 5759 5761 5765 5768 5771 5775 5775 5776 5780 5784 5788 5789 5790 5790 5788 5790 5793 5794 5799 5802 5805 5806 5808 5810 5813 5812 5813 5813 5812 5811 5810 5809 5809 5806 5803 5801 5798 5795
5744 5747 5751 5754 5757 5758 5760 5762 5764 5769 5772 5771 5773 5775 5778 5782 5785 5782 5784 5786 5786 5790 5792 5796 5799 5801 5803 5805 5806 5808 5810 5810 5809 5808 5807 5806 5805 5803 5801 5798 5796 5793 5790
5742 5743 5746 5750 5753 5755 5757 5760 5761 5763 5764 5766 5770 5770 5774 5777 5778 5778 5780 5782 5782 5786 5790 5794 5796 5799 5799 5802 5804 5804 5805 5806 5806 5803 5802 5801 5800 5797 5795 5792 5790 5787 5784
5738 5742 5743 5746 5750 5751 5753 5755 5757 5760 5760 5764 5766 5767 5769 5771 5772 5773 5776 5780 5782 5786 5788 5791 5792 5794 5797 5799 5799 5800 5800 5799 5799 5799 5798 5796 5793 5791 5789 5786 5784 5781 5778
5732 5736 5740 5742 5744 5745 5747 5748 5751 5754 5758 5760 5763 5763 5763 5766 5767 5768 5773 5779 5780 5783 5786 5787 5789 5791 5793 5795 5796 5795 5793 5792 5792 5792 5791 5789 5787 5784 5782 5779 5776 5773 5769
5729 5733 5737 5739 5739 5740 5741 5743 5747 5752 5755 5756 5759 5759 5760 5760 5763 5768 5772 5777 5779 5781 5782 5784 5786 5788 5789 5790 5790 5790 5790 5788 5787 5785 5785 5782 5780 5777 5774 5772 5768 5764 5760
5729 5732 5735 5737 5735 5733 5736 5741 5745 5747 5750 5750 5753 5753 5757 5762 5764 5767 5772 5776 5777 5777 5779 5781 5783 5784 5785 5785 5785 5785 5785 5784 5781 5779 5778 5776 5774 5771 5768 5765 5760 5756 5750
5735 5736 5734 5733 5733 5737 5737 5739 5745 5751 5750 5754 5754 5755 5757 5759 5764 5767 5770 5771 5773 5774 5775 5777 5779 5779 5780 5780 5780 5779 5779 5777 5775 5772 5770 5767 5765 5762 5759 5755 5751 5746 5741
5739 5737 5737 5737 5737 5739 5741 5744 5750 5751 5750 5754 5755 5758 5757 5760 5763 5765 5767 5768 5769 5770 5771 5771 5772 5774 5774 5775 5773 5772 5770 5769 5766 5763 5760 5757 5755 5752 5749 5745 5739 5736 5730
5740 5740 5740 5739 5740 5742 5745 5748 5748 5751 5751 5752 5753 5755 5758 5761 5762 5762 5764 5764 5765 5764 5766 5766 5766 5767 5767 5767 5765 5764 5762 5760 5756 5754 5751 5748 5745 5741 5737 5733 5727 5723 5718
5741 5741 5741 5742 5742 5743 5745 5746 5747 5747 5748 5750 5753 5753 5754 5755 5756 5759 5759 5759 5760 5759 5760 5760 5761 5761 5761 5759 5758 5756 5753 5749 5747 5745 5743 5738 5736 5730 5725 5720 5715 5709 5704
5741 5740 5741 5742 5742 5743 5745 5746 5746 5747 5748 5749 5748 5749 5749 5750 5752 5753 5752 5752 5752 5751 5752 5753 5752 5753 5752 5750 5749 5746 5743 5739 5740 5736 5733 5729 5724 5719 5713 5707 5702 5696 5691
Wind_Speed
41 46 45 40 43 39 38 40 31 30 31 29 30 26 24 22 21 21 20 19 19 20 18 18 17 17 14 13 13 13 13 12 13 13 13 11 10 9 10 10 10 8 8
38 40 49 47 54 45 46 42 34 35 35 33 29 28 26 23 21 21 18 17 18 18 18 19 17 15 13 12 13 13 12 12 12 13 14 12 12 13 11 10 10 9 9
43 46 34 34 35 45 47 38 35 34 34 32 29 28 27 24 22 18 19 20 19 20 20 19 16 13 13 12 15 12 12 13 12 14 14 13 12 9 8 8 8 8 7
45 48 58 50 25 39 47 42 39 36 33 31 30 27 25 22 21 20 20 20 21 20 19 17 16 14 15 14 15 14 12 13 12 11 11 9 7 6 5 4 5 5 6
38 42 48 51 47 35 36 37 35 37 33 32 31 26 23 21 19 20 20 21 20 20 19 18 20 18 17 16 15 15 14 13 11 10 7 5 4 4 4 4 5 6 7
34 40 42 52 49 49 43 45 41 39 35 35 31 27 26 21 17 19 20 20 20 18 17 19 21 19 17 17 15 16 14 10 8 4 2 1 2 3 4 6 7 9 11
44 44 38 43 47 53 39 48 52 42 40 36 33 30 27 22 22 24 23 23 22 21 19 19 19 19 19 18 17 14 13 8 5 4 3 3 3 4 7 8 9 10 12
41 57 41 33 31 18 38 45 55 46 39 36 34 30 28 24 24 24 25 24 22 21 22 21 21 18 18 15 17 11 8 6 6 5 5 4 4 6 8 10 10 11 14
23 39 31 27 20 20 23 34 29 44 41 39 35 29 28 25 24 24 24 23 24 24 24 22 20 19 17 10 16 11 9 7 7 6 4 5 6 10 11 11 12 15 17
14 24 24 25 22 21 21 29 51 46 40 43 33 31 29 25 22 21 23 27 28 28 25 23 20 18 18 11 14 12 10 8 8 7 6 6 10 12 11 13 16 19 21
21 17 20 19 20 20 21 30 25 40 45 34 25 29 29 25 23 19 26 31 31 27 28 28 22 18 14 15 16 11 9 8 8 7 7 9 11 12 15 17 18 18 18
20 20 17 20 22 15 22 23 17 22 25 25 29 27 28 25 24 24 27 28 33 31 27 23 17 16 15 16 14 12 12 12 10 9 11 11 11 15 17 16 17 17 18
12 14 19 15 21 24 19 18 8 8 14 26 29 29 28 29 27 32 29 23 21 31 30 21 18 18 18 16 15 14 14 12 11 12 12 12 14 17 18 17 18 20 22
13 17 17 20 18 9 9 6 5 7 10 16 14 22 25 12 20 14 19 15 20 23 25 20 19 18 16 15 14 15 13 11 12 13 14 14 16 17 18 19 22 24 26
12 18 17 16 15 11 9 8 11 10 14 12 12 12 14 21 19 18 16 20 18 24 24 22 19 17 17 16 15 14 11 12 13 15 15 16 18 19 20 22 25 28 30
15 17 20 20 21 16 14 16 13 16 19 10 12 12 13 18 21 13 15 20 22 25 22 20 18 18 16 15 15 14 14 15 16 17 17 19 21 22 24 27 29 32 33
17 19 23 24 22 20 16 24 25 18 16 19 16 16 17 23 22 13 14 22 25 22 19 18 17 17 18 18 16 15 15 15 18 19 21 23 24 26 30 31 33 36 38
19 20 22 25 23 23 21 20 16 14 13 18 21 17 24 27 20 16 13 20 18 15 17 17 17 17 18 18 17 16 16 19 19 23 24 25 25 27 29 33 37 39 41
18 23 25 28 24 22 21 19 16 17 21 21 18 20 19 19 17 17 26 20 18 19 15 16 19 21 19 18 17 18 20 21 25 28 26 24 26 29 33 38 42 45 44
13 20 22 22 22 19 17 17 21 23 20 22 24 25 23 20 25 25 17 15 14 15 19 21 21 20 20 20 20 22 23 27 31 31 30 28 30 34 38 42 44 47 46
22 15 13 14 12 7 10 16 19 14 16 15 21 23 20 21 18 18 15 15 15 18 19 21 22 22 24 23 24 25 26 31 30 32 33 34 36 37 39 42 45 49 50
18 20 20 21 22 18 19 19 19 16 17 15 14 15 18 18 17 17 17 17 18 18 21 23 23 24 24 24 27 31 31 31 30 31 34 36 36 39 40 43 47 52 54
12 15 17 17 17 17 17 17 16 15 16 14 12 12 12 14 16 16 17 18 19 21 24 26 25 26 26 27 30 33 35 35 35 37 38 38 40 44 47 50 51 56 58
10 10 14 15 16 15 15 14 14 12 12 11 9 6 6 6 8 9 14 18 20 21 22 24 26 28 29 30 31 34 37 38 36 37 41 40 41 44 47 50 54 62 63
7 9 10 11 12 12 11 11 9 8 6 5 5 3 2 5 5 7 13 20 23 24 25 25 30 29 33 35 35 37 39 31 38 41 45 39 47 50 54 57 63 64 61
2 3 4 6 7 6 6 7 8 6 2 5 3 3 6 5 6 7 8 11 24 30 32 33 30 31 31 36 34 31 33 35 39 40 41 47 50 51 53 58 59 61 61
Wind_Direction
246 244 254 258 254 258 241 237 232 246 248 250 253 253 254 255 255 257 260 261 257 256 256 253 258 258 263 265 271 277 281 290 296 305 305 307 318 326 329 325 320 320 318
247 245 249 238 241 252 242 236 225 234 242 247 247 250 252 257 263 266 260 253 250 246 251 253 252 255 258 261 260 270 272 285 295 299 300 306 312 312 307 309 305 298 300
254 241 245 226 212 234 229 223 222 226 234 239 242 246 251 258 263 263 259 252 248 249 248 251 256 253 256 255 261 265 272 280 291 302 307 316 322 312 303 301 300 307 315
249 250 251 269 273 235 216 216 219 224 230 235 239 244 254 259 261 259 249 248 250 251 252 252 251 250 254 255 258 266 275 282 287 294 309 323 320 330 329 326 316 314 318
253 260 255 259 266 264 206 212 213 221 225 231 236 242 251 253 257 251 253 252 252 252 254 252 252 247 246 248 257 265 268 274 281 296 306 296 298 308 311 321 321 323 317
254 257 256 251 259 262 255 220 212 216 220 226 231 238 246 249 253 257 255 260 265 263 262 255 249 245 247 246 249 259 268 273 278 280 266 242 255 271 297 308 315 318 316
259 254 255 255 263 258 247 196 207 213 218 225 232 238 239 237 246 255 259 263 265 263 260 259 255 253 248 248 252 248 257 239 234 219 190 228 264 291 305 314 316 317 319
259 240 241 247 264 225 182 185 210 211 216 225 231 234 236 239 250 254 260 258 260 259 257 255 252 249 241 245 256 249 220 204 206 204 223 254 283 306 308 313 315 317 317
224 214 217 228 235 241 243 237 213 204 211 226 230 231 237 242 247 252 253 261 262 255 251 250 250 248 236 202 249 234 191 200 209 215 238 269 301 307 308 309 311 312 310
204 207 213 221 232 238 249 268 241 200 202 220 223 233 238 238 243 256 268 263 261 253 241 237 237 239 243 185 205 206 196 197 217 233 257 290 303 300 303 310 311 311 309
214 199 203 226 227 235 250 265 194 208 211 217 225 236 243 250 248 244 270 256 258 258 241 241 232 234 225 173 183 203 204 216 229 247 268 283 290 299 306 308 310 314 317
189 200 215 220 219 224 241 227 221 196 214 224 229 241 247 251 252 257 274 274 287 257 247 229 223 207 191 178 187 197 206 219 237 257 272 282 294 304 307 313 319 324 328
209 241 221 219 217 212 233 243 231 207 211 224 243 242 253 243 251 287 275 306 303 241 233 217 203 200 194 191 195 211 229 223 240 258 278 287 304 311 313 317 320 328 330
243 244 259 280 288 259 289 210 219 239 240 220 232 244 247 283 259 258 271 277 277 234 225 208 201 200 202 205 213 225 227 239 259 279 281 291 304 308 309 316 321 323 325
245 232 238 245 246 254 268 243 279 273 263 226 228 234 256 273 265 250 265 261 244 236 215 195 199 210 210 212 210 216 238 259 279 282 283 292 299 296 308 313 317 321 320
245 239 235 238 237 236 242 255 276 280 258 251 246 242 257 240 258 275 252 250 227 212 191 195 206 209 217 213 217 222 242 264 278 281 290 295 299 304 313 315 318 317 318
228 233 237 244 241 247 241 249 259 269 277 256 253 229 227 249 263 244 235 247 225 186 192 204 212 210 213 210 223 242 261 280 281 287 292 291 300 313 315 315 318 319 316
225 222 228 240 239 241 231 243 250 242 252 231 239 243 256 250 221 208 222 201 185 190 199 209 212 210 208 216 232 253 272 276 282 289 287 290 304 309 313 317 315 314 315
212 214 227 236 239 232 224 225 234 245 244 227 236 254 225 199 198 186 186 187 181 198 210 212 211 209 216 234 250 264 271 277 286 289 287 295 301 304 309 310 311 315 314
205 213 218 224 219 213 214 225 230 228 226 223 232 234 215 181 170 169 165 184 202 216 214 212 213 221 230 243 253 265 279 288 289 286 284 292 298 301 305 305 309 310 312
86 109 158 155 140 119 190 201 208 223 221 177 171 164 148 158 165 173 180 199 214 225 231 228 228 233 242 249 262 274 285 290 293 289 287 288 295 301 303 305 306 307 312
95 102 106 109 107 108 106 117 124 150 137 148 146 147 159 166 180 188 201 212 216 228 240 244 245 248 258 266 275 279 287 292 292 290 288 291 296 302 306 306 311 314 312
99 110 119 120 121 127 128 139 149 154 145 154 155 166 171 188 199 207 220 229 235 236 243 243 249 260 266 275 282 285 285 289 291 294 293 294 301 306 299 296 305 311 311
120 118 114 112 110 119 132 141 141 151 153 157 156 154 170 193 218 230 242 248 243 243 242 247 253 261 272 276 282 283 286 291 294 298 299 298 300 299 303 306 304 304 306
139 142 133 129 133 141 153 153 154 158 134 127 152 161 152 200 213 261 254 252 246 247 250 250 258 263 268 271 278 282 286 290 293 295 287 295 304 303 300 299 297 302 306
124 157 175 171 170 172 177 173 175 174 142 202 7 213 169 204 227 287 296 293 265 249 252 249 256 263 264 277 278 281 288 287 287 293 292 293 299 302 301 298 301 303 304